{"data":{"norad_id":62425,"epoch":"2026-09-21T18:37:52.413312Z","epoch_age_seconds":70828,"freshness":"FRESH","line1":"1 62425U 24249S   26264.77630108  .00017688  00000+0  65038-3 0  9996","line2":"2 62425  43.0030 283.1201 0001890 270.8231  89.2404 15.27597734 97844","mean_motion":15.27597734,"eccentricity":0.000189,"inclination_deg":43.003,"raan_deg":283.1201,"arg_perigee_deg":270.8231,"mean_anomaly_deg":89.2404,"bstar":0.00065038,"rev_number":9784,"period_min":94.26565436369,"perigee_km":481.69924044163,"apogee_km":484.29274871358,"semimajor_km":6861.1329945776,"source":"CELESTRAK","updated_at":"2026-09-22T09:00:49.578622Z"}}